Date,TemperatureHighF,TemperatureAvgF,TemperatureLowF,DewpointHighF,DewpointAvgF,DewpointLowF,HumidityHigh,HumidityAvg,HumidityLow,PressureMaxIn,PressureMinIn,WindSpeedMaxMPH,WindSpeedAvgMPH,GustSpeedMaxMPH,PrecipitationSumIn
2013-1-1,20,5,-8,19,4,-9,97,94,86,30.31,30.04,9,2,11,0.00
2013-1-2,21,17,13,21,17,13,99,99,94,30.10,29.97,10,2,11,0.00
2013-1-3,21,13,8,20,11,3,97,93,69,30.30,30.10,12,5,13,0.00
2013-1-4,28,21,14,22,18,14,99,88,77,30.12,30.03,13,4,15,0.00
2013-1-5,24,16,7,19,14,7,99,92,78,30.09,29.86,10,2,15,0.00
2013-1-6,21,16,8,18,14,6,99,92,82,30.23,30.03,10,2,12,0.00
2013-1-7,37,29,20,30,26,18,98,87,74,30.04,29.89,13,5,18,0.00
2013-1-8,33,26,17,31,25,17,99,94,84,30.00,29.76,14,3,20,0.00
2013-1-9,33,30,24,29,26,23,99,86,76,30.37,29.92,14,5,24,0.00
2013-1-10,42,35,25,34,30,24,99,82,61,30.31,29.74,8,2,12,0.30
2013-1-11,42,37,34,42,37,34,99,99,99,29.74,29.35,10,1,13,0.04
2013-1-12,39,15,3,39,12,0,99,88,80,30.11,29.37,24,8,33,0.02
2013-1-13,8,4,1,4,2,-1,93,90,84,30.27,30.08,12,2,15,0.00
2013-1-14,13,8,4,8,5,2,96,90,79,30.44,30.27,9,2,13,0.00
2013-1-15,29,20,6,22,16,5,99,86,72,30.31,29.86,13,4,19,0.00
2013-1-16,37,26,12,34,23,6,99,87,61,30.25,29.65,13,6,22,0.00
2013-1-17,19,11,3,14,7,0,89,81,69,30.43,30.25,7,2,14,0.00
2013-1-18,42,30,17,35,27,14,99,89,73,30.31,29.74,12,4,17,0.00
2013-1-19,39,23,2,34,21,-1,99,89,73,30.27,29.68,26,6,46,0.00
2013-1-20,7,2,-2,4,-2,-6,94,83,72,30.42,30.27,18,4,24,0.00
2013-1-21,-2,-6,-11,-6,-10,-15,92,83,76,30.41,30.29,14,4,22,0.00
2013-1-22,5,-3,-10,2,-7,-13,90,84,77,30.45,30.26,9,1,13,0.00
2013-1-23,16,6,-3,13,2,-10,99,82,68,30.64,30.15,19,4,24,0.00
2013-1-24,14,3,-5,7,-4,-11,79,74,65,30.70,30.21,10,2,13,0.00
2013-1-25,19,12,3,16,8,-6,90,81,42,30.34,29.96,16,6,25,0.00
2013-1-26,25,13,0,17,8,-2,97,81,66,30.38,30.12,8,1,11,0.00
2013-1-27,32,30,24,31,26,17,99,87,70,30.12,29.79,6,0,13,0.14
2013-1-28,35,32,30,35,32,30,99,99,99,29.89,29.65,9,1,10,0.34
2013-1-29,35,31,28,33,30,25,99,95,88,29.76,29.53,12,3,18,0.10
2013-1-30,28,18,8,25,14,4,93,87,83,29.78,29.64,17,7,25,0.00
2013-1-31,8,-1,-7,4,-5,-11,89,84,79,30.32,29.78,19,8,24,0.00
2013-2-1,4,-3,-11,4,-6,-19,99,87,66,30.36,30.06,9,1,15,0.00
2013-2-2,10,5,1,9,3,-1,99,91,79,30.20,29.98,8,1,9,0.00
2013-2-3,13,9,3,12,7,1,99,92,79,30.11,29.97,9,2,14,0.00
2013-2-4,16,10,4,14,7,2,99,87,72,30.08,29.77,8,1,11,0.00
2013-2-5,29,22,7,28,20,7,99,92,76,30.09,29.66,12,4,16,0.00
2013-2-6,26,15,2,24,14,2,99,96,88,30.13,29.91,9,2,13,0.00
2013-2-7,27,25,21,26,24,21,99,96,87,30.26,29.98,9,3,15,0.00
2013-2-8,26,24,21,25,22,14,94,90,63,30.39,30.22,11,2,15,0.00
2013-2-9,32,29,26,31,28,25,99,96,92,30.22,29.92,11,5,19,0.00
2013-2-10,33,30,29,33,30,28,99,99,97,29.92,29.25,13,3,16,0.02
2013-2-11,29,25,17,29,23,16,99,92,85,30.05,29.33,17,6,22,0.02
2013-2-12,35,24,15,28,22,14,99,90,74,30.07,29.82,9,3,16,0.20
2013-2-13,38,28,17,34,26,17,99,93,79,29.82,29.55,6,2,11,0.16
2013-2-14,32,26,15,32,23,10,99,87,64,30.20,29.56,16,3,22,0.04
2013-2-15,17,10,4,10,6,3,95,85,72,30.34,30.20,10,3,13,0.02
2013-2-16,19,8,1,13,6,1,99,91,76,30.28,30.11,5,0,7,0.00
2013-2-17,31,21,6,26,18,5,98,86,76,30.11,29.61,11,3,20,0.00
2013-2-18,32,22,5,32,20,3,99,90,84,29.84,29.50,15,4,22,0.00
2013-2-19,5,2,-1,3,-2,-4,93,83,76,30.40,29.84,16,6,22,0.00
2013-2-20,16,5,-7,9,1,-8,94,82,70,30.49,30.39,7,1,7,0.00
2013-2-21,22,14,4,16,10,3,95,83,72,30.46,30.09,8,2,14,0.00
2013-2-22,27,23,20,24,22,16,99,95,79,30.09,29.86,12,2,16,0.12
2013-2-23,25,20,12,24,19,12,99,97,92,29.97,29.86,9,3,14,0.10
2013-2-24,33,18,2,25,16,2,99,90,72,30.11,29.97,6,0,8,0.00
2013-2-25,34,27,19,28,24,18,99,88,74,30.12,30.04,5,0,7,0.00
2013-2-26,34,26,14,29,24,14,99,91,80,30.06,29.88,11,3,16,0.00
2013-2-27,39,32,28,30,27,25,93,84,67,30.04,29.88,12,5,19,0.00
2013-2-28,29,28,25,25,24,20,90,84,79,30.23,30.03,13,4,15,0.00
2013-3-1,29,25,19,22,20,16,90,81,72,30.36,30.23,13,3,14,0.00
2013-3-2,28,20,8,18,14,8,99,80,56,30.38,30.18,6,0,8,0.00
2013-3-3,31,25,18,20,16,13,83,69,56,30.18,29.98,10,3,13,0.00
2013-3-4,28,25,22,24,22,19,99,88,69,30.03,29.95,13,5,19,0.00
2013-3-5,29,25,22,27,24,21,99,97,90,30.32,29.98,9,3,14,0.02
2013-3-6,27,22,13,22,20,13,99,90,79,30.43,30.32,8,2,13,0.02
2013-3-7,30,19,5,24,16,5,99,88,74,30.40,30.28,7,1,11,0.02
2013-3-8,38,28,15,32,25,15,99,90,78,30.34,30.11,6,1,9,0.04
2013-3-9,35,35,33,35,35,33,99,99,99,29.88,29.69,5,0,8,0.66
2013-3-10,33,31,29,33,30,26,99,94,89,29.94,29.78,14,6,23,0.16
2013-3-11,29,27,23,27,24,20,93,89,79,29.87,29.76,13,5,14,0.00
2013-3-12,27,24,21,23,20,16,93,83,68,30.22,29.86,17,5,23,0.00
2013-3-13,28,21,12,22,17,12,99,86,69,30.41,30.21,9,2,12,0.00
2013-3-14,40,30,23,31,27,21,99,86,71,30.26,30.01,9,1,10,0.02
2013-3-15,32,30,25,32,30,25,99,98,93,30.02,29.80,8,2,11,0.04
2013-3-16,25,21,13,25,17,9,99,86,69,30.24,29.90,14,5,16,0.02
2013-3-17,27,18,7,24,12,3,87,78,69,30.28,29.88,13,3,15,0.00
2013-3-18,29,21,11,29,19,8,99,91,66,29.88,29.61,20,8,25,0.00
2013-3-19,20,11,3,11,5,0,90,79,63,30.23,29.84,18,7,24,0.00
2013-3-20,19,10,1,10,4,-3,83,75,66,30.25,30.13,16,6,22,0.00
2013-3-21,26,14,1,15,8,-1,95,77,62,30.15,30.04,8,1,13,0.00
2013-3-22,33,18,3,20,12,2,97,78,56,30.12,30.03,5,0,10,0.00
2013-3-23,34,26,14,25,20,13,98,80,61,30.16,30.09,7,1,11,0.00
2013-3-24,31,28,26,28,24,-100,99,87,73,30.12,29.98,13,2,16,0.00
2013-3-25,34,28,23,25,21,18,89,75,60,30.24,30.04,11,4,23,0.00
2013-3-26,37,28,22,27,23,20,93,83,66,30.32,30.24,9,2,13,0.00
2013-3-27,41,30,17,26,23,17,99,78,43,30.36,30.30,7,1,10,0.00
2013-3-28,43,32,20,32,26,20,99,80,61,30.36,30.27,6,1,10,0.00
2013-3-29,49,38,30,40,33,27,93,83,67,30.29,30.05,9,1,15,0.00
2013-3-30,52,44,34,45,39,-100,99,88,75,30.05,29.83,10,3,19,0.14
2013-3-31,38,32,24,34,27,18,99,81,53,30.11,29.81,18,7,30,0.10
2013-4-1,32,24,18,21,18,14,89,76,59,30.28,30.11,16,5,19,0.00
2013-4-2,34,25,16,21,17,13,98,74,51,30.37,30.27,11,2,15,0.00
2013-4-3,46,34,18,36,26,16,99,75,54,30.42,30.06,13,4,23,0.00
2013-4-4,48,41,31,36,32,25,90,70,53,30.17,30.01,18,6,24,0.00
2013-4-5,40,32,26,33,27,21,99,83,57,30.25,29.88,10,3,17,0.04
2013-4-6,55,42,32,48,38,31,99,85,69,29.88,29.48,12,4,19,0.16
2013-4-7,47,40,35,43,37,33,99,89,74,29.94,29.74,8,1,11,0.02
2013-4-8,46,42,40,44,42,38,99,97,90,30.03,29.67,10,2,14,0.84
2013-4-9,42,37,31,38,34,30,99,90,72,30.17,29.97,18,7,25,0.50
2013-4-10,38,33,29,33,30,27,99,88,73,30.21,29.90,13,5,20,0.20
2013-4-11,35,32,29,33,31,28,99,97,79,29.91,29.67,13,4,21,0.48
2013-4-12,34,30,27,32,29,27,99,96,84,29.85,29.68,11,2,12,0.02
2013-4-13,35,31,28,30,28,27,99,89,76,29.96,29.85,13,3,16,0.06
2013-4-14,38,32,29,38,30,-2,99,94,22,29.95,29.47,15,6,19,0.48
2013-4-15,39,35,27,37,31,24,99,87,79,29.99,29.53,18,8,30,0.02
2013-4-16,43,36,30,33,29,-100,93,78,65,30.32,29.98,9,3,17,0.00
2013-4-17,41,36,33,36,33,30,99,87,79,30.32,29.89,16,3,17,0.34
2013-4-18,33,31,29,33,31,29,99,99,99,29.94,29.52,15,3,22,0.42
2013-4-19,36,31,28,30,28,23,99,87,65,30.01,29.51,18,7,28,0.04
2013-4-20,39,31,21,24,22,19,96,69,50,30.30,30.00,6,1,9,0.14
2013-4-21,50,40,31,49,38,23,99,91,65,30.31,30.00,15,4,21,0.14
2013-4-22,42,36,30,40,34,30,99,93,74,30.22,30.12,12,4,17,0.16
2013-4-23,40,33,27,32,28,24,99,84,57,30.19,30.07,12,2,16,0.32
2013-4-24,49,36,27,36,30,-100,99,81,52,30.09,29.91,18,4,24,0.10
2013-4-25,51,40,31,37,32,29,99,77,52,30.23,30.00,10,3,17,0.10
2013-4-26,69,57,45,50,43,35,83,61,39,30.12,29.97,13,4,22,0.00
2013-4-27,72,59,39,51,43,36,89,59,37,30.12,29.88,10,2,14,0.00
2013-4-28,78,62,50,55,50,47,95,67,40,29.88,29.59,14,6,21,0.06
2013-4-29,72,61,49,60,50,39,99,70,47,29.80,29.51,7,2,11,0.00
2013-4-30,68,63,56,60,49,35,87,63,32,29.94,29.37,18,5,29,0.00
2013-5-1,55,40,32,41,36,32,99,89,57,30.48,29.95,13,2,17,0.32
2013-5-2,45,39,34,35,31,28,96,73,59,30.56,30.42,17,5,22,0.10
2013-5-3,36,33,30,35,31,26,99,92,73,30.42,30.16,16,4,20,0.20
2013-5-4,48,38,31,44,37,31,99,95,83,30.17,30.12,10,4,14,0.10
2013-5-5,64,49,38,52,44,38,99,84,64,30.18,30.05,7,1,9,0.00
2013-5-6,72,60,44,52,49,44,99,71,45,30.11,29.98,6,0,9,0.00
2013-5-7,75,63,49,55,51,48,98,66,42,30.05,29.92,9,1,11,0.00
2013-5-8,74,63,55,57,53,50,99,73,46,29.99,29.90,5,0,15,0.20
2013-5-9,58,53,44,57,49,33,99,88,65,30.09,29.93,14,4,22,0.04
2013-5-10,65,50,35,43,32,-100,84,57,30,30.12,29.88,9,2,13,0.00
2013-5-11,55,46,41,43,32,-100,76,59,43,30.18,29.86,21,7,28,0.00
2013-5-12,55,45,31,32,28,26,85,55,32,30.24,30.09,14,3,17,0.00
2013-5-13,72,55,36,52,40,30,91,59,43,30.11,29.62,14,4,20,0.00
2013-5-14,96,73,51,59,50,39,88,50,20,29.66,29.41,20,4,27,0.00
2013-5-15,76,65,53,53,49,46,79,59,39,29.91,29.66,11,4,18,0.00
2013-5-16,79,63,51,54,30,-100,86,52,35,29.90,29.81,11,2,19,0.00
2013-5-17,68,56,54,56,48,-100,99,89,43,29.98,29.87,11,3,14,0.44
2013-5-18,80,65,54,68,61,54,99,87,63,30.00,29.76,10,2,14,2.24
2013-5-19,79,69,64,69,66,63,99,88,66,29.77,29.52,14,2,16,0.66
2013-5-20,71,65,57,65,61,57,99,86,68,29.55,29.47,19,2,21,0.20
2013-5-21,63,56,49,60,56,49,99,98,90,29.69,29.49,7,1,10,0.30
2013-5-22,53,48,45,51,48,45,99,98,80,29.98,29.68,9,1,15,0.26
2013-5-23,63,53,44,47,41,35,94,65,40,30.33,29.98,13,3,16,0.02
2013-5-24,68,54,38,53,44,35,99,70,47,30.39,30.14,8,1,13,0.20
2013-5-25,59,55,52,53,50,46,99,85,73,30.25,30.21,8,2,15,0.18
2013-5-26,56,54,52,51,47,43,86,77,68,30.22,30.04,12,3,20,0.00
2013-5-27,59,55,53,56,53,50,99,92,81,30.03,29.82,9,3,17,0.14
2013-5-28,59,55,53,58,55,53,99,98,92,29.82,29.71,7,1,10,0.10
2013-5-29,73,64,53,71,62,53,99,95,82,29.80,29.62,9,1,12,0.34
2013-5-30,74,68,62,66,64,61,99,87,68,29.67,29.49,10,3,16,0.30
2013-5-31,75,66,60,63,58,54,99,77,52,29.54,29.49,17,4,27,0.28
2013-6-1,71,59,51,61,54,46,97,83,64,29.94,29.53,13,3,22,0.02
2013-6-2,64,55,47,47,45,42,92,69,50,30.08,29.94,12,2,18,0.02
2013-6-3,67,58,44,50,47,44,99,69,50,30.07,29.92,6,0,11,0.00
2013-6-4,61,58,54,55,51,48,99,80,63,30.06,29.97,7,1,14,0.00
2013-6-5,64,56,53,58,54,51,99,96,82,30.04,29.93,5,0,15,0.16
2013-6-6,55,52,50,55,52,50,99,98,93,30.04,29.96,7,1,11,0.02
2013-6-7,64,57,51,54,53,51,99,87,69,30.06,29.91,4,0,6,0.00
2013-6-8,71,62,53,59,55,52,99,80,60,29.91,29.86,6,0,8,0.00
2013-6-9,66,59,55,63,58,55,99,95,82,29.88,29.75,11,3,18,0.52
2013-6-10,73,65,57,63,61,57,99,88,69,29.85,29.79,0,0,0,0.02
2013-6-11,76,66,55,68,63,55,99,92,71,29.89,29.79,5,0,10,0.00
2013-6-12,72,66,59,66,63,56,99,91,71,29.92,29.76,9,1,15,2.76
2013-6-13,76,68,56,59,56,51,86,68,53,30.08,29.91,8,2,14,0.04
2013-6-14,78,68,55,64,59,52,93,74,60,30.07,29.85,9,2,14,0.00
2013-6-15,75,69,63,70,64,-100,99,89,70,29.88,29.83,8,0,18,0.02
2013-6-16,84,69,56,64,58,50,99,72,32,29.92,29.83,10,2,18,0.02
2013-6-17,81,71,58,62,59,56,95,68,44,29.99,29.85,11,2,13,0.00
2013-6-18,76,66,56,62,58,52,88,75,60,30.07,29.99,7,1,11,0.00
2013-6-19,83,72,58,66,61,56,95,70,49,30.05,29.92,8,0,10,0.00
2013-6-20,85,75,69,68,64,60,79,69,48,29.98,29.88,6,2,15,0.00
2013-6-22,79,75,68,71,69,66,99,82,74,29.94,29.81,7,1,8,0.66
2013-6-23,81,74,68,70,68,66,99,84,61,29.85,29.66,10,3,19,0.32
2013-6-24,80,72,63,72,68,63,99,86,68,29.88,29.78,7,0,14,0.02
2013-6-25,83,74,64,74,69,64,99,84,70,29.80,29.67,7,1,11,0.00
2013-6-26,84,77,71,74,70,64,99,80,55,29.80,29.63,13,2,19,0.00
2013-6-27,83,75,67,66,62,55,93,67,39,29.80,29.76,17,3,21,0.00
2013-6-28,76,70,65,64,61,58,98,73,62,29.80,29.74,15,4,25,0.00
2013-6-29,74,67,60,65,59,53,99,78,53,29.96,29.72,10,2,16,0.22
2013-6-30,78,68,56,58,55,51,88,66,45,30.09,29.96,9,1,12,0.04
2013-7-1,81,71,58,62,58,56,98,68,46,30.16,30.09,7,0,11,0.00
2013-7-2,80,71,59,59,57,53,90,64,43,30.15,30.02,8,1,10,0.00
2013-7-3,82,71,56,62,57,53,99,65,39,30.05,29.92,5,0,9,0.00
2013-7-4,86,75,63,65,60,57,86,60,38,29.94,29.83,8,1,15,0.00
2013-7-5,84,77,68,66,62,58,75,62,50,29.88,29.77,9,2,17,0.00
2013-7-6,87,77,72,68,64,62,71,64,51,29.85,29.77,7,2,13,0.00
2013-7-7,87,79,72,72,68,65,91,69,56,29.86,29.78,7,1,11,0.00
2013-7-8,84,73,67,71,68,65,99,84,59,29.96,29.86,5,1,9,0.00
2013-7-9,81,76,68,71,69,65,99,81,67,29.93,29.72,14,4,21,0.14
2013-7-10,78,70,61,65,57,-100,88,68,51,30.03,29.90,10,3,18,0.04
2013-7-11,83,72,58,65,60,58,99,70,43,30.10,29.95,6,0,9,0.00
2013-7-12,86,76,68,66,62,59,76,62,48,29.99,29.87,13,2,16,0.00
2013-7-13,76,71,64,69,65,60,99,82,64,30.03,29.89,9,2,17,1.58
2013-7-14,83,75,68,69,66,61,90,75,58,30.16,30.03,7,0,10,0.16
2013-7-15,86,76,67,71,67,65,96,75,53,30.21,30.13,6,0,8,0.00
2013-7-16,88,80,72,72,70,68,95,74,55,30.19,30.14,9,2,12,0.00
2013-7-17,90,82,73,73,71,69,89,72,53,30.23,30.09,10,2,14,0.00
2013-7-18,89,82,75,73,71,68,85,69,53,30.09,29.74,17,4,19,0.00
2013-7-19,81,78,71,72,66,61,87,68,51,29.88,29.70,12,4,17,0.00
2013-7-20,78,70,63,67,62,-100,95,76,61,29.93,29.86,6,1,10,0.02
2013-7-21,79,69,57,70,63,54,99,81,68,29.95,29.77,9,1,10,0.12
2013-7-22,84,74,67,73,67,61,98,80,56,29.78,29.65,13,3,19,0.02
2013-8-5,80,73,67,69,67,63,99,82,65,29.87,29.76,0,0,0,0.00
2013-8-6,83,69,57,70,64,57,99,85,59,29.83,29.64,14,0,23,0.10
2013-8-7,75,66,60,62,58,54,99,78,49,30.01,29.76,3,0,12,0.16
2013-8-8,74,64,55,63,60,55,99,87,63,30.04,29.96,9,0,11,0.00
2013-8-9,74,66,57,62,58,56,99,78,55,30.10,29.98,4,0,16,0.00
2013-8-10,76,68,60,62,58,54,95,72,53,30.16,30.06,4,0,7,0.00
2013-8-11,79,70,64,68,64,60,96,83,62,30.07,29.97,0,0,0,0.00
2013-8-21,83,78,73,77,74,71,96,86,77,29.99,29.83,6,1,10,0.00
2013-8-22,84,76,68,67,60,57,77,59,41,30.12,30.00,7,2,13,0.00
2013-8-23,84,73,58,70,64,55,89,74,59,30.16,30.05,0,0,2,0.00
2013-8-24,87,77,72,74,67,-100,87,75,60,30.08,29.94,8,2,17,0.00
2013-8-25,93,84,78,77,74,72,83,73,59,30.01,29.94,10,2,16,0.00
2013-8-26,93,84,77,78,76,73,91,76,60,29.99,29.84,9,2,11,0.00
2013-8-27,91,81,76,77,74,72,93,80,60,29.86,29.80,6,1,7,0.00
2013-10-7,67,51,42,51,46,42,99,86,50,30.01,29.88,3,0,8,0.02
2013-10-8,77,64,48,54,51,46,96,65,43,30.00,29.84,8,2,15,0.02
2013-10-9,77,65,57,58,54,50,79,67,49,30.07,29.95,9,2,14,0.00
2013-10-10,77,63,51,61,54,49,94,74,50,30.06,29.90,11,1,15,0.00
2013-10-11,74,65,55,63,58,53,99,77,60,29.90,29.64,12,3,33,0.00
2013-10-12,58,50,46,55,43,-100,93,80,62,30.20,29.72,12,4,23,0.00
2013-10-13,58,47,35,45,41,35,99,81,53,30.47,30.22,5,0,10,0.00
2013-10-14,54,47,40,51,43,40,99,87,68,30.43,30.00,8,2,18,0.50
2013-10-18,52,44,38,43,39,35,99,82,56,30.03,29.90,10,2,15,0.12
2013-10-19,48,39,33,43,36,-100,99,92,78,29.88,29.73,9,2,16,0.00
2013-10-20,48,38,30,44,37,30,99,95,77,29.92,29.65,11,2,15,0.04
2013-10-21,39,35,29,37,28,25,95,77,66,30.02,29.93,16,2,18,0.02
2013-10-22,40,34,25,36,32,25,99,89,77,30.09,30.01,4,0,8,0.00
2013-10-23,38,34,31,34,29,25,97,82,69,30.16,30.06,11,2,15,0.00
2013-10-24,43,38,32,36,31,26,94,78,68,30.37,30.17,12,2,18,0.00
2013-12-30,2,-4,-13,1,-6,-15,99,94,89,30.36,30.20,4,0,6,0.00
2013-12-31,0,-4,-8,-3,-6,-9,99,92,83,30.45,30.26,6,0,7,0.00
2014-1-1,1,-2,-6,-2,-5,-10,90,84,82,30.54,30.45,8,2,10,0.00
2014-1-2,3,-3,-9,-3,-7,-11,91,81,63,30.57,30.44,6,1,9,0.00